Location: Dealu Mare
(46.0500°N, 22.8167°E)
Time: 21:27:13
(UTC+00:00)

Cosmos 1763 Rocket - Pass Details

Date: 15 January 2026
Orbit: 729 x 773 km, 74.0° (Epoch: 10 February)

Event Time Altitude Azimuth Distance (km) Brightness Sun altitude
Exits shadow 04:54:15 - 339° (NNW) 2,860 6.1 -12.3°
Reaches altitude 10° 04:55:51 10° 341° (NNW) 2,237 5.6 -12.1°
Maximum altitude 05:00:55 79° 68° (ENE) 752 3.6 -11.2°
Drops below altitude 10° 05:05:58 10° 155° (SSE) 2,236 6.6 -10.4°
Sets 05:08:19 0° 157° (SSE) 3,160 7.4 -10.0°
